User: anonymous
Location: Unspecified
(0.0000°N, 0.0000°E)
Time: 08:17:57
(UTC+00:00)
Language:

CUTE 1.7 & AOD 2 - Orbit

View from above orbital plane
View from above orbital plane
View from above satellite
View from above satellite

Ground track
Ground track

The orbit data is extracted from the following two-line orbital elements,

1 32785U 08021C   14207.84066257  .00000768  00000-0  95069-4 0   117
2 32785 097.6962 257.8306 0014866 063.4460 348.4351 14.85396600337918
Epoch (UTC): 26 July 2014 20:10:33
Eccentricity: 0.0014866
inclination: 97.6962°
perigee height: 602 km
apogee height: 623 km
right ascension of ascending node: 257.8306°
argument of perigee: 63.4460°
revolutions per day: 14.85396600
mean anomaly at epoch: 348.4351°
orbit number at epoch: 33791

The dashed part of the orbit path shows where the satellite is in the earth's shadow,  

DLR